Stations météo

Publicité
Dorans, France (7296): Température de l'air & dewpoint: 13.11.2017 20:00:00 - 19.11.2017 20:00:00 (CET)Dorans, France (7296): Température de l'air 5cm: 13.11.2017 20:00:00 - 19.11.2017 20:00:00 (CET)Dorans, France (7296): Température de l'air -20cm & Température de l'air -100cm: 13.11.2017 20:00:00 - 19.11.2017 20:00:00 (CET)Dorans, France (7296): Vitesse du vent & gusts: 13.11.2017 20:00:00 - 19.11.2017 20:00:00 (CET)Dorans, France (7296): Direction du vent: 13.11.2017 20:00:00 - 19.11.2017 20:00:00 (CET)Dorans, France (7296): reduced air pressure: 13.11.2017 20:00:00 - 19.11.2017 20:00:00 (CET)Dorans, France (7296): visibility: 13.11.2017 20:00:00 - 19.11.2017 20:00:00 (CET)Dorans, France (7296): Quantités de précipitations: 13.11.2017 20:00:00 - 19.11.2017 20:00:00 (CET)
Date & Time tt [°C] td [°C] tt 5cm [°C] tt -20cm [°C] tt -100cm [°C] ff [km/h] ff [knt] fx [km/h] fx [knt] dd ppp [hPa] vv [km] rr [mm]
19.11.2017 20:00:00 3,1 2,5 1,3 6,9 10,8 5 3 17 9 WSW 1025,9 8 0,0
19.11.2017 19:00:00 3,1 2,4 1,3 6,9 10,8 6 3 22 12 SSW 1025,4 6 0,0
19.11.2017 18:00:00 3,3 2,4 1,7 7,0 10,8 10 6 21 11 WSW 1024,9 12 0,0
19.11.2017 17:00:00 3,4 2,2 1,8 6,9 10,8 8 4 17 9 W 1024,2 15 0,0
19.11.2017 16:00:00 4,5 2,2 4,3 6,8 10,8 9 5 21 12 WSW 1023,7 20 0,0
19.11.2017 15:00:00 5,1 3,1 5,8 6,7 10,8 9 5 22 12 W 1023,3 20 0,0
19.11.2017 14:00:00 5,0 3,0 5,8 6,7 10,8 14 8 26 14 W 1023,2 20 0,0
19.11.2017 13:00:00 4,8 3,8 5,6 6,6 10,8 11 6 28 15 W 1023,1 16 0,0
19.11.2017 12:00:00 4,5 3,8 4,7 6,6 10,9 13 7 30 16 W 1023,2 14 0,0
19.11.2017 11:00:00 4,1 3,5 3,8 6,6 10,9 15 8 31 17 W 1023,1 10 0,3
19.11.2017 10:00:00 3,7 3,3 3,0 6,6 10,8 10 5 21 11 W 1022,5 5 0,2
19.11.2017 09:00:00 3,0 2,6 2,3 6,7 10,9 9 5 22 12 W 1022,4 2,7 0,4
19.11.2017 08:00:00 2,8 2,5 0,7 6,8 10,9 13 7 25 14 WSW 1021,5 2,8 0,4
19.11.2017 07:00:00 1,0 0,6 0,0 6,8 10,8 7 4 15 8 WNW 1021,5 3,7 0,8
19.11.2017 06:00:00 0,6 0,0 0,0 6,9 10,9 4 2 22 12 W 1021,5 2,1 1,8
19.11.2017 05:00:00 1,2 0,5 0,3 6,9 10,9 12 6 21 11 WSW 1021,8 3,1 1,0
19.11.2017 04:00:00 1,4 0,5 0,7 6,9 10,9 10 5 22 12 WSW 1022,2 6 0,8
19.11.2017 03:00:00 1,7 0,5 0,7 7,0 10,9 13 7 24 13 W 1022,6 4,1 0,4
19.11.2017 02:00:00 2,6 0,2 1,7 7,0 10,9 13 7 26 14 WSW 1022,8 18 0,0
19.11.2017 01:00:00 3,2 -0,4 2,5 7,1 10,9 13 7 22 12 WSW 1023,2 20 0,0
19.11.2017 00:00:00 3,3 -0,9 2,8 7,1 10,9 9 5 21 12 WSW 1024,0 20 0,0
18.11.2017 23:00:00 3,2 -0,8 2,6 7,1 10,9 11 6 21 11 SW 1024,4 20 0,0
18.11.2017 22:00:00 3,1 -0,7 2,6 7,2 10,9 12 6 21 11 SW 1024,9 20 0,0
18.11.2017 21:00:00 3,1 -0,5 2,7 7,2 10,9 14 8 22 12 SSW 1025,0 20 0,0
18.11.2017 20:00:00 3,2 -0,4 2,7 7,3 11,0 10 5 21 12 WSW 1025,5 20 0,0
18.11.2017 19:00:00 3,2 -0,4 2,7 7,3 11,0 11 6 23 13 WSW 1025,5 20 0,0
18.11.2017 18:00:00 3,7 -0,3 3,3 7,3 11,0 11 6 22 12 SW 1025,5 20 0,0
18.11.2017 17:00:00 3,9 -0,5 3,5 7,2 11,0 11 6 22 12 WSW 1025,4 20 0,0
18.11.2017 16:00:00 4,2 -0,4 4,1 7,2 11,0 12 7 24 13 SW 1025,4 20 0,0
18.11.2017 15:00:00 4,3 -0,1 4,5 7,2 11,0 13 7 27 14 W 1025,3 20 0,0
18.11.2017 14:00:00 4,4 1,4 4,4 7,1 11,0 9 5 23 12 W 1025,3 20 0,0
18.11.2017 13:00:00 4,7 1,7 4,8 7,1 11,0 10 6 26 14 WSW 1025,8 20 0,0
18.11.2017 12:00:00 4,5 1,7 5,1 7,1 11,0 11 6 20 11 WNW 1026,2 20 0,0
18.11.2017 11:00:00 4,5 2,4 4,8 7,0 11,0 5 3 13 7 W 1026,2 20 0,0
18.11.2017 10:00:00 3,7 2,8 3,7 7,0 11,0 8 5 17 9 WNW 1026,1 15 0,0
18.11.2017 09:00:00 3,2 2,6 3,0 7,0 11,0 5 3 8 5 WNW 1026,0 7 0,0
18.11.2017 08:00:00 3,0 2,6 2,7 7,1 11,0 6 3 11 6 NW 1026,2 7 0,0
18.11.2017 07:00:00 2,8 2,4 2,7 7,0 11,0 5 3 11 6 NW 1025,9 8 0,0
18.11.2017 06:00:00 2,9 2,5 2,7 7,1 11,0 3 2 12 7 NNW 1025,7 5 0,0
18.11.2017 05:00:00 3,1 2,7 3,0 7,0 11,0 5 3 14 7 NW 1026,1 8 0,0
18.11.2017 04:00:00 3,5 3,2 3,4 7,1 11,1 6 3 10 5 NNW 1025,9 5 0,0
18.11.2017 03:00:00 3,7 3,4 3,7 7,0 11,0 5 3 8 4 NNW 1025,9 0,6 0,0
18.11.2017 02:00:00 3,7 3,4 3,8 7,1 11,1 4 2 9 5 NE 1025,8 0,2 0,0
18.11.2017 01:00:00 3,6 3,3 3,7 7,1 11,1 4 2 13 7 E 1026,1 0,2 0,0
18.11.2017 00:00:00 3,6 3,3 3,7 7,1 11,1 7 4 13 7 ENE 1026,6 0,2 0,0
17.11.2017 23:00:00 3,6 3,3 3,7 7,1 11,1 8 4 21 12 E 1026,6 0,3 0,0
17.11.2017 22:00:00 3,8 3,4 3,9 7,1 11,1 11 6 21 12 ENE 1026,7 2,5 0,0
17.11.2017 21:00:00 3,9 3,5 4,0 7,1 11,1 10 5 21 12 ENE 1026,3 2,4 0,0
17.11.2017 20:00:00 4,0 3,4 4,0 7,0 11,1 11 6 21 11 E 1026,1 3,1 0,0
17.11.2017 19:00:00 3,9 2,9 3,9 7,0 11,1 7 4 17 9 E 1026,4 5 0,0
17.11.2017 18:00:00 4,0 2,5 3,8 7,0 11,2 9 5 20 11 E 1026,4 7 0,0
17.11.2017 17:00:00 4,1 2,4 4,0 6,9 11,1 11 6 20 11 E 1026,3 8 0,0
17.11.2017 16:00:00 4,7 2,1 4,9 6,8 11,1 13 7 23 12 E 1026,0 13 0,0
17.11.2017 15:00:00 5,5 2,3 6,6 6,7 11,2 11 6 26 14 E 1025,9 13 0,0
17.11.2017 14:00:00 6,4 2,3 8,1 6,5 11,2 14 8 23 12 ESE 1025,9 13 0,0
17.11.2017 13:00:00 5,9 1,6 11,6 6,4 11,2 13 7 23 12 ESE 1026,3 12 0,0
17.11.2017 12:00:00 5,1 1,2 8,6 6,4 11,2 13 7 21 11 ESE 1026,8 11 0,0
17.11.2017 11:00:00 3,1 0,7 4,9 6,4 11,2 8 5 18 10 E 1027,4 7 0,0
17.11.2017 10:00:00 1,5 0,3 1,1 6,4 11,2 9 5 18 10 ENE 1027,5 4,6 0,0
17.11.2017 09:00:00 0,5 -0,2 0,4 6,4 11,2 14 8 20 11 ESE 1027,7 3,6 0,0
17.11.2017 08:00:00 0,0 -0,4 -0,2 6,4 11,2 8 4 19 10 E 1027,9 3,0 0,0
17.11.2017 07:00:00 -0,1 -0,5 0,1 6,4 11,2 6 3 19 11 ENE 1027,5 2,2 0,0
17.11.2017 06:00:00 -0,2 -0,6 0,2 6,5 11,2 10 5 16 9 E 1027,2 2,0 0,0
17.11.2017 05:00:00 -0,1 -0,4 0,1 6,5 11,2 8 4 15 8 NE 1027,4 1,9 0,0
17.11.2017 04:00:00 -0,3 -0,7 0,1 6,5 11,2 9 5 16 9 E 1027,4 1,8 0,0
17.11.2017 03:00:00 -0,3 -0,7 -0,1 6,5 11,3 9 5 18 10 E 1027,9 1,5 0,0
17.11.2017 02:00:00 -0,2 -0,9 0,1 6,6 11,3 9 5 16 9 E 1027,9 3,2 0,0
17.11.2017 01:00:00 0,1 -0,6 0,3 6,6 11,3 8 4 19 11 E 1027,7 3,4 0,0
17.11.2017 00:00:00 0,0 -0,7 0,2 6,6 11,3 8 5 18 10 ENE 1027,5 3,8 0,0
16.11.2017 23:00:00 0,1 -0,6 0,3 6,7 11,3 9 5 16 9 E 1027,6 4,2 0,0
16.11.2017 22:00:00 0,2 -0,7 0,0 6,7 11,3 10 5 18 10 E 1027,6 4,7 0,0
16.11.2017 21:00:00 0,0 -0,7 -2,5 6,8 11,3 6 3 10 6 NE 1027,5 4,5 0,0
16.11.2017 20:00:00 -0,3 -1,1 -2,3 6,8 11,3 7 4 13 7 ENE 1027,1 5 0,0
16.11.2017 19:00:00 0,5 -0,6 -1,3 6,8 11,3 9 5 16 9 ENE 1026,7 6 0,0
16.11.2017 18:00:00 0,5 -1,0 -1,1 6,8 11,3 8 5 14 7 ENE 1026,6 7 0,0
16.11.2017 17:00:00 1,4 -0,4 0,9 6,8 11,3 10 5 15 8 NNE 1026,4 8 0,0
16.11.2017 16:00:00 1,6 -0,7 2,1 6,8 11,3 8 4 18 10 E 1025,8 8 0,0
16.11.2017 15:00:00 1,7 -0,4 2,9 6,7 11,4 10 5 16 8 NNE 1026,0 9 0,0
16.11.2017 14:00:00 1,3 -0,6 2,6 6,7 11,3 9 5 21 11 E 1025,9 8 0,0
16.11.2017 13:00:00 0,9 -0,7 2,1 6,7 11,4 9 5 21 11 E 1026,1 8 0,0
16.11.2017 12:00:00 0,7 -1,1 1,5 6,6 11,3 14 8 23 12 ESE 1026,1 7 0,0
16.11.2017 11:00:00 -0,3 -1,3 0,6 6,7 11,4 13 7 23 13 E 1026,8 5 0,0
16.11.2017 10:00:00 -0,7 -1,3 -0,3 6,7 11,4 14 7 23 12 E 1026,5 4,1 0,0
16.11.2017 09:00:00 -1,2 -1,5 -0,7 6,8 11,4 11 6 30 16 ENE 1026,5 2,3 0,0
16.11.2017 08:00:00 -1,4 -1,8 -0,9 6,8 11,4 13 7 29 16 E 1026,0 3,2 0,0
16.11.2017 07:00:00 -1,1 -1,5 -0,7 6,9 11,4 11 6 25 13 E 1025,5 3,2 0,0
16.11.2017 06:00:00 -0,9 -1,2 -0,5 6,9 11,4 12 7 23 12 ENE 1025,5 2,5 0,0
16.11.2017 05:00:00 -0,9 -1,2 -0,5 6,9 11,4 13 7 25 13 E 1025,5 2,9 0,0
16.11.2017 04:00:00 -0,7 -0,8 -0,3 7,0 11,4 15 8 24 13 ENE 1025,5 1,7 0,0
16.11.2017 03:00:00 -0,7 -0,8 -0,2 7,0 11,4 17 9 33 18 ENE 1025,4 0,5 0,0
16.11.2017 02:00:00 -0,6 -0,7 -0,2 7,0 11,4 13 7 29 16 E 1025,6 0,4 0,0
16.11.2017 01:00:00 -0,1 -0,2 0,4 7,0 11,4 13 7 26 14 E 1025,6 0,2 0,0
16.11.2017 00:00:00 0,4 0,3 0,7 7,1 11,4 15 8 27 15 E 1025,8 0,5 0,0
15.11.2017 23:00:00 0,5 0,2 0,8 7,1 11,4 16 8 29 16 E 1025,8 0,2 0,0
15.11.2017 22:00:00 0,7 0,4 0,9 7,1 11,4 15 8 30 16 E 1026,0 0,4 0,0
15.11.2017 21:00:00 0,7 0,4 0,4 7,2 11,5 14 8 29 16 E 1026,5 1,3 0,0
15.11.2017 20:00:00 0,2 -0,2 0,2 7,2 11,4 14 7 25 14 E 1026,5 2,6 0,0
15.11.2017 19:00:00 0,3 -0,3 -0,5 7,3 11,5 11 6 25 14 ENE 1026,6 4,5 0,0
15.11.2017 18:00:00 0,1 -0,6 -0,9 7,2 11,5 13 7 21 11 ENE 1026,3 5 0,0
15.11.2017 17:00:00 1,0 -0,6 0,1 7,3 11,5 13 7 21 12 E 1025,7 12 0,0
15.11.2017 16:00:00 3,2 -0,1 3,4 7,2 11,5 13 7 22 12 ENE 1025,4 20 0,0
15.11.2017 15:00:00 4,4 0,5 6,3 7,1 11,5 11 6 23 12 E 1025,3 19 0,0
15.11.2017 14:00:00 3,9 0,6 5,5 7,1 11,5 16 9 28 15 ENE 1025,7 20 0,0
15.11.2017 13:00:00 2,3 1,1 3,9 7,1 11,5 12 6 29 16 E 1026,4 11 0,0
15.11.2017 12:00:00 1,6 1,3 2,3 7,0 11,5 16 9 30 16 E 1027,1 5 0,0
15.11.2017 11:00:00 1,0 0,9 1,5 7,1 11,5 14 8 29 15 E 1027,7 0,9 0,0
15.11.2017 10:00:00 0,3 0,2 0,9 7,0 11,5 14 8 28 15 E 1027,8 0,8 0,0
15.11.2017 09:00:00 0,1 0,0 0,7 7,1 11,5 13 7 26 14 E 1027,9 2,8 0,0
15.11.2017 08:00:00 0,5 0,4 0,8 7,1 11,5 9 5 27 14 E 1027,7 1,3 0,0
15.11.2017 07:00:00 0,7 0,6 1,0 7,2 11,6 14 8 29 16 E 1027,4 1,2 0,0
15.11.2017 06:00:00 0,7 0,6 1,0 7,2 11,5 16 8 31 17 E 1027,2 0,3 0,0
15.11.2017 05:00:00 0,7 0,6 0,9 7,2 11,5 12 7 32 18 E 1027,3 0,2 0,0
15.11.2017 04:00:00 0,6 0,5 0,8 7,3 11,6 13 7 23 12 ENE 1027,3 0,2 0,0
15.11.2017 03:00:00 0,4 0,3 0,6 7,3 11,5 11 6 21 11 ENE 1027,7 0,2 0,0
15.11.2017 02:00:00 0,3 0,2 0,3 7,4 11,5 10 5 24 13 ENE 1027,9 0,1 0,0
15.11.2017 01:00:00 0,3 0,0 -0,8 7,5 11,6 6 3 15 8 E 1028,3 0,1 0,0
15.11.2017 00:00:00 0,3 0,0 -2,3 7,6 11,6 8 4 14 8 E 1028,6 0,8 0,0
14.11.2017 23:00:00 0,1 -0,3 -2,2 7,7 11,6 8 5 12 7 ENE 1028,5 0,9 0,0
14.11.2017 22:00:00 0,7 0,1 -2,2 7,7 11,6 3 2 10 6 ENE 1028,6 1,2 0,0
14.11.2017 21:00:00 1,2 0,3 -1,5 7,8 11,6 4 2 10 6 E 1028,5 4,3 0,0
14.11.2017 20:00:00 1,9 0,7 -0,7 7,8 11,6 5 3 15 8 ENE 1028,4 9 0,0
14.11.2017 19:00:00 2,1 0,5 -1,0 7,9 11,6 7 4 12 7 ENE 1028,1 11 0,0
14.11.2017 18:00:00 2,8 1,0 0,5 7,9 11,6 4 2 8 4 NNE 1027,8 12 0,0
14.11.2017 17:00:00 3,8 1,3 1,0 7,8 11,6 5 3 17 9 E 1027,0 19 0,0
14.11.2017 16:00:00 5,2 1,9 5,6 7,7 11,6 9 5 16 9 E 1026,5 20 0,0
14.11.2017 15:00:00 4,9 1,9 6,0 7,7 11,6 9 5 23 12 E 1026,3 18 0,0
14.11.2017 14:00:00 5,2 2,4 4,7 7,6 11,6 11 6 23 12 E 1026,3 20 0,0
14.11.2017 13:00:00 3,7 1,6 4,9 7,6 11,6 10 6 24 13 E 1026,6 20 0,0
14.11.2017 12:00:00 3,3 2,0 4,1 7,6 11,6 13 7 29 16 E 1027,0 13 0,0
14.11.2017 11:00:00 3,0 2,3 3,5 7,6 11,6 14 8 24 13 ENE 1027,3 10 0,0
14.11.2017 10:00:00 2,0 1,7 2,4 7,6 11,6 9 5 19 11 ENE 1027,5 0,6 0,0
14.11.2017 09:00:00 1,9 1,6 2,0 7,7 11,6 11 6 18 10 NE 1027,2 2,5 0,0
14.11.2017 08:00:00 1,9 1,6 1,6 7,7 11,6 10 6 18 10 NE 1026,7 2,6 0,0
14.11.2017 07:00:00 1,5 1,2 0,2 7,8 11,6 10 6 19 11 NE 1026,0 4,1 0,0
14.11.2017 06:00:00 0,5 0,2 -1,2 7,9 11,6 3 2 10 6 ENE 1025,6 4,8 0,0
14.11.2017 05:00:00 0,3 0,0 -1,8 8,0 11,6 3 2 7 4 W 1025,3 1,1 0,0
14.11.2017 04:00:00 1,4 1,1 -0,8 8,0 11,7 2 1 5 3 NNE 1024,9 4,3 0,0
14.11.2017 03:00:00 1,3 0,9 -0,9 8,1 11,7 2 1 8 4 NW 1024,7 2,4 0,0
14.11.2017 02:00:00 1,9 1,3 0,3 8,1 11,7 6 4 14 8 WNW 1024,3 6 0,0
14.11.2017 01:00:00 2,7 2,3 1,4 8,2 11,7 8 4 14 8 ENE 1024,1 13 0,0
14.11.2017 00:00:00 2,1 1,7 -0,1 8,2 11,7 2 1 7 4 ESE 1024,2 3,9 0,0
13.11.2017 23:00:00 2,1 1,5 0,4 8,2 11,7 3 2 8 4 N 1023,6 6 0,0
13.11.2017 22:00:00 2,7 2,1 2,3 8,3 11,7 4 2 7 4 WNW 1023,2 6 0,0
13.11.2017 21:00:00 2,9 2,3 1,0 8,4 11,7 5 3 9 5 NW 1022,8 11 0,0
13.11.2017 20:00:00 3,0 2,3 1,5 8,4 11,7 3 1 9 5 S 1022,3 11 0,0

tt = Température de l'air
td = dewpoint
tt 5cm = Température de l'air 5cm
tt -20cm = Température de l'air -20cm
tt -100cm = Température de l'air -100cm
ff = Vitesse du vent
fx = gusts
dd = Direction du vent
ppp = reduced air pressure
vv = visibility
rr = Quantités de précipitations

stations d'obs. à proximité